Ravenna, OH

7:05 AM EDT on October 21, 2019 (GMT -0400)
Ravenna

Weather History for KPOV - September, 2019

Change the Weather History Date:

Tuesday, September 17, 2019

  Actual Average (KCAK) Record (KCAK)
Temperature  
Mean Temperature 66 °F -  
Max Temperature 76 °F 72 °F 90 °F (1955)
Min Temperature 57 °F 54 °F 35 °F (1959)
Cooling Degree Days 2    
Growing Degree Days 16 (Base 50)    
Moisture  
Dew Point 58 °F    
Average Humidity 79    
Maximum Humidity 94    
Minimum Humidity 52    
Precipitation  
Precipitation 0.00 in - - ()
Sea Level Pressure  
Sea Level Pressure 30.16 in    
Wind  
Wind Speed 4 mph (NE)    
Max Wind Speed 8 mph    
Max Gust Speed -    
Visibility 8 miles    
Events      
Averages and records for this station are not official NWS values.
T = Trace of Precipitation, MM = Missing Value Source: NWS Daily Summary

Daily Weather History Graph

Daily Weather History Graph

Search for Another Location

Airport or City:

Astronomy

Sep. 17, 2019 Rise Set
Actual Time 7:07 AM EDT 7:31 PM EDT
Civil Twilight 6:39 AM EDT 7:58 PM EDT
Nautical Twilight 6:07 AM EDT 8:31 PM EDT
Astronomical Twilight 5:33 AM EDT 9:04 PM EDT
Moon 9:31 PM EDT (9/17) 10:11 AM EDT (9/17)
Length of Visible Light 13h 19m
Length of Day
12h 23m
Waning Gibbous, 89% of the Moon is Illuminated
Sep 17
Waning Gibbous
Sep 21
Last Quarter
Sep 28
New
Oct 5
First Quarter
Oct 13
Full

Hourly Weather History & Observations

Time (EDT) Temp. Dew Point Humidity Pressure Visibility Wind Dir Wind Speed Gust Speed Precip Events Conditions
12:15 AM 61.7 °F 58.6 °F 90% 30.12 in 10.0 mi Calm Calm - N/A   Clear
12:35 AM 61.0 °F 58.5 °F 91% 30.13 in 10.0 mi Calm Calm - N/A   Clear
12:58 AM 61.2 °F 59.0 °F 93% 30.12 in 10.0 mi Calm Calm - N/A   Clear
1:15 AM 60.8 °F 58.3 °F 91% 30.13 in 10.0 mi Calm Calm - N/A   Clear
1:38 AM 60.8 °F 58.5 °F 92% 30.13 in 7.0 mi NNW 3.5 mph - N/A   Clear
1:56 AM 60.8 °F 59.0 °F 94% 30.13 in 7.0 mi North 4.6 mph - N/A   Mostly Cloudy
2:18 AM 61.0 °F 59.2 °F 94% 30.13 in 4.0 mi Calm Calm - N/A   Overcast
2:36 AM 60.8 °F 59.0 °F 94% 30.13 in 5.0 mi North 4.6 mph - N/A   Overcast
2:55 AM 60.8 °F 59.0 °F 94% 30.12 in 5.0 mi NNE 4.6 mph - N/A   Scattered Clouds
3:15 AM 60.8 °F 59.0 °F 94% 30.12 in 7.0 mi NE 3.5 mph - N/A   Clear
3:35 AM 60.8 °F 59.0 °F 94% 30.12 in 7.0 mi NE 4.6 mph - N/A   Clear
3:58 AM 61.0 °F 59.2 °F 94% 30.12 in 5.0 mi NE 5.8 mph - N/A   Mostly Cloudy
4:15 AM 61.2 °F 59.4 °F 94% 30.12 in 5.0 mi NE 6.9 mph - N/A   Overcast
4:56 AM 61.2 °F 59.4 °F 94% 30.13 in 5.0 mi NE 5.8 mph - N/A   Overcast
5:18 AM 61.3 °F 59.5 °F 94% 30.13 in 7.0 mi NE 4.6 mph - N/A   Overcast
5:36 AM 61.3 °F 59.4 °F 93% 30.13 in 7.0 mi NE 5.8 mph - N/A   Overcast
5:55 AM 61.2 °F 59.2 °F 93% 30.13 in 7.0 mi NE 5.8 mph - N/A   Overcast
6:15 AM 61.3 °F 59.4 °F 93% 30.14 in 5.0 mi ENE 4.6 mph - N/A   Overcast
6:35 AM 61.5 °F 59.4 °F 93% 30.15 in 5.0 mi NE 5.8 mph - N/A   Overcast
6:58 AM 61.3 °F 59.4 °F 93% 30.15 in 5.0 mi NE 4.6 mph - N/A   Overcast
7:15 AM 61.3 °F 59.4 °F 93% 30.16 in 5.0 mi NE 6.9 mph - N/A   Overcast
7:38 AM 61.3 °F 59.5 °F 94% 30.17 in 2.0 mi ENE 5.8 mph - N/A   Overcast
7:56 AM 61.5 °F 59.7 °F 94% 30.17 in 2.5 mi NE 5.8 mph - N/A   Overcast
8:18 AM 61.7 °F 59.9 °F 94% 30.17 in 3.0 mi East 6.9 mph - N/A   Overcast
8:36 AM 61.2 °F 59.4 °F 94% 30.18 in 0.8 mi NNE 4.6 mph - N/A   Overcast
8:55 AM 61.3 °F 59.5 °F 94% 30.19 in 1.5 mi NE 3.5 mph - N/A   Overcast
9:15 AM 61.7 °F 59.9 °F 94% 30.19 in 3.0 mi NE 4.6 mph - N/A   Overcast
9:35 AM 61.9 °F 59.9 °F 93% 30.21 in 7.0 mi NE 5.8 mph - N/A   Overcast
10:15 AM 62.8 °F 60.1 °F 91% 30.21 in 5.0 mi North 4.6 mph - N/A   Overcast
10:38 AM 62.6 °F 59.9 °F 91% 30.21 in 7.0 mi NE 3.5 mph - N/A   Overcast
10:56 AM 62.8 °F 59.7 °F 90% 30.21 in 10.0 mi NE 5.8 mph - N/A   Overcast
11:18 AM 63.0 °F 60.1 °F 90% 30.22 in 10.0 mi Calm Calm - N/A   Overcast
11:36 AM 63.7 °F 59.9 °F 87% 30.21 in 10.0 mi ENE 4.6 mph - N/A   Overcast
11:55 AM 65.7 °F 60.4 °F 83% 30.21 in 10.0 mi NE 4.6 mph - N/A   Overcast
12:15 PM 68.7 °F 60.8 °F 76% 30.21 in 10.0 mi Calm Calm - N/A   Overcast
12:35 PM 70.5 °F 60.8 °F 71% 30.20 in 10.0 mi ENE 4.6 mph - N/A   Overcast
12:58 PM 70.7 °F 60.4 °F 70% 30.20 in 10.0 mi East 4.6 mph - N/A   Scattered Clouds
1:15 PM 70.0 °F 59.9 °F 70% 30.19 in 10.0 mi East 3.5 mph - N/A   Scattered Clouds
1:38 PM 71.1 °F 60.1 °F 68% 30.19 in 10.0 mi Calm Calm - N/A   Scattered Clouds
1:56 PM 70.7 °F 60.1 °F 69% 30.19 in 10.0 mi ENE 3.5 mph - N/A   Scattered Clouds
2:18 PM 71.2 °F 58.3 °F 64% 30.18 in 10.0 mi NNE 3.5 mph - N/A   Mostly Cloudy
2:36 PM 74.3 °F 59.0 °F 59% 30.18 in 7.0 mi NNE 4.6 mph - N/A   Mostly Cloudy
2:55 PM 72.0 °F 58.3 °F 62% 30.17 in 7.0 mi Calm Calm - N/A   Scattered Clouds
3:15 PM 75.9 °F 58.5 °F 55% 30.16 in 7.0 mi East 5.8 mph - N/A   Scattered Clouds
3:35 PM 76.1 °F 58.1 °F 54% 30.16 in 10.0 mi ENE 4.6 mph - N/A   Scattered Clouds
3:58 PM 76.8 °F 57.7 °F 52% 30.15 in 10.0 mi NE 3.5 mph - N/A   Scattered Clouds
4:15 PM 75.0 °F 57.9 °F 55% 30.15 in 7.0 mi NE 4.6 mph - N/A   Mostly Cloudy
4:38 PM 76.5 °F 57.4 °F 52% 30.15 in 7.0 mi NE 4.6 mph - N/A   Scattered Clouds
4:56 PM 75.7 °F 57.6 °F 53% 30.15 in 7.0 mi ENE 5.8 mph - N/A   Clear
5:18 PM 75.0 °F 57.4 °F 54% 30.15 in 10.0 mi ENE 5.8 mph - N/A   Clear
5:36 PM 74.7 °F 57.0 °F 54% 30.15 in 7.0 mi ENE 6.9 mph - N/A   Clear
5:55 PM 74.3 °F 55.8 °F 52% 30.15 in 10.0 mi NE 6.9 mph - N/A   Clear
6:15 PM 73.2 °F 57.7 °F 58% 30.15 in 10.0 mi ENE 8.1 mph - N/A   Clear
6:35 PM 71.8 °F 57.6 °F 61% 30.15 in 10.0 mi ENE 6.9 mph - N/A   Clear
6:58 PM 69.8 °F 57.2 °F 64% 30.15 in 5.0 mi ENE 5.8 mph - N/A   Clear
7:15 PM 67.5 °F 57.2 °F 70% 30.15 in 10.0 mi ENE 5.8 mph - N/A   Clear
7:38 PM 66.9 °F 57.6 °F 72% 30.15 in 7.0 mi Calm Calm - N/A   Clear
7:56 PM 66.0 °F 57.6 °F 74% 30.15 in 7.0 mi NE 6.9 mph - N/A   Clear
8:18 PM 64.8 °F 55.8 °F 73% 30.15 in 10.0 mi NE 4.6 mph - N/A   Clear
8:36 PM 63.9 °F 54.7 °F 72% 30.16 in 10.0 mi NNE 4.6 mph - N/A   Clear
8:55 PM 62.8 °F 54.5 °F 74% 30.17 in 10.0 mi NNE 4.6 mph - N/A   Clear
9:15 PM 62.1 °F 53.6 °F 74% 30.17 in 10.0 mi NE 4.6 mph - N/A   Clear
9:35 PM 61.5 °F 53.1 °F 74% 30.18 in 10.0 mi NE 3.5 mph - N/A   Clear
9:58 PM 60.8 °F 52.7 °F 75% 30.18 in 10.0 mi NE 5.8 mph - N/A   Clear
10:15 PM 60.4 °F 52.7 °F 76% 30.18 in 10.0 mi NE 5.8 mph - N/A   Clear
10:38 PM 60.1 °F 52.7 °F 77% 30.19 in 10.0 mi NE 5.8 mph - N/A   Clear
10:56 PM 59.5 °F 52.7 °F 78% 30.19 in 10.0 mi NE 5.8 mph - N/A   Clear
11:18 PM 57.9 °F 52.5 °F 82% 30.19 in 10.0 mi ENE 5.8 mph - N/A   Clear
11:36 PM 57.2 °F 52.7 °F 85% 30.18 in 10.0 mi ENE 4.6 mph - N/A   Clear
11:55 PM 57.2 °F 52.5 °F 84% 30.18 in 10.0 mi ENE 5.8 mph - N/A   Clear